FW5910 Weather Reports


time (UTC)temp
F
wind
direction
speed
knots
gust
knots
rain 1hr
in
rain 24hr
in
rain mn
in
humidity
%
barometer
mb
20260904144238 49 339 0.0 0.0 0.06 0.16 0.08 84 1012.8
20260904143734 50 338 0.0 0.0 0.05 0.16 0.06 84 1012.8
20260904143236 50 338 0.0 0.0 0.04 0.16 0.06 84 1012.7
20260904142733 50 338 0.0 0.0 0.04 0.16 0.06 83 1012.5
20260904142233 50 340 0.0 0.9 0.04 0.16 0.05 83 1012.2
20260904141731 50 340 0.0 0.9 0.03 0.16 0.04 83 1012.2
20260904141232 50 340 0.0 0.9 0.03 0.16 0.04 83 1012.1
20260904140730 50 339 0.0 0.9 0.02 0.16 0.03 83 1011.9
20260904140232 50 340 0.0 0.9 0.02 0.16 0.03 83 1011.9
20260904135730 51 339 0.0 2.6 0.02 0.14 0.02 83 1011.7
20260904135236 51 339 0.9 2.6 0.01 0.14 0.02 82 1011.6
20260904134730 51 339 0.9 2.6 0.01 0.14 0.02 82 1011.6
20260904134232 51 316 0.0 2.6 0.01 0.15 0.02 81 1011.5
20260904133730 51 213 0.0 2.6 0.01 0.15 0.02 81 1011.4
20260904133233 51 213 0.9 2.6 0.01 0.15 0.02 80 1011.4
20260904132730 51 213 1.7 4.3 0.02 0.15 0.02 79 1011.4
20260904132234 51 213 0.9 4.3 0.01 0.16 0.01 79 1011.3
20260904131731 51 217 0.9 2.6 0.01 0.16 0.01 80 1011.2
20260904131231 51 217 0.9 2.6 0.01 0.16 0.01 80 1011.0
20260904130232 52 217 0.9 2.6 0.01 0.16 0.01 81 1010.9
20260904125736 52 214 0.9 2.6 0.01 0.15 0.01 81 1010.8
20260904125235 52 215 0.9 2.6 0.01 0.15 0.01 80 1010.8
20260904124733 52 211 0.9 2.6 0.01 0.15 0.01 81 1010.7
20260904124235 52 213 0.9 2.6 0.01 0.15 0.01 80 1010.5
20260904123737 52 221 0.9 1.7 0.01 0.15 0.01 79 1010.5
20260904123235 52 222 0.9 1.7 0.01 0.15 0.01 78 1010.5
20260904122733 52 0 0.9 1.7 0.00 0.16 0.00 78 1010.4
20260904122234 53 0 0.9 2.6 0.00 0.16 0.00 76 1010.3
20260904121732 53 0 1.7 3.5 0.00 0.16 0.00 76 1010.4
20260904121236 54 0 2.6 7.0 0.00 0.16 0.00 73 1010.3
20260904120734 53 131 3.5 7.0 0.00 0.16 0.00 73 1010.4
20260904120237 52 122 1.7 5.2 0.00 0.16 0.00 79 1010.4
20260904115733 51 126 1.7 5.2 0.00 0.16 0.00 80 1010.9
20260904114735 51 221 1.7 4.3 0.00 0.16 0.00 78 1011.2
20260904114236 51 223 2.6 6.1 0.00 0.16 0.00 77 1010.9
20260904113737 51 222 0.9 6.1 0.00 0.16 0.00 78 1010.6
20260904113234 51 190 0.0 2.6 0.00 0.16 0.00 80 1010.2
20260904112732 51 221 0.9 4.3 0.00 0.16 0.00 79 1010.1
20260904112234 51 217 2.6 5.2 0.00 0.16 0.00 78 1009.4
20260904111732 51 219 3.5 6.1 0.00 0.16 0.00 78 1009.2
20260904111237 51 229 2.6 6.1 0.00 0.16 0.00 77 1008.9
20260904110235 51 211 2.6 4.3 0.00 0.16 0.00 78 1009.0
20260904105739 51 255 2.6 6.1 0.00 0.16 0.00 79 1009.0
20260904105237 51 243 2.6 7.0 0.00 0.16 0.00 80 1009.1
20260904104735 50 126 1.7 7.0 0.00 0.16 0.00 82 1009.3
20260904104238 50 191 0.0 3.5 0.00 0.16 0.00 82 1009.0
20260904102731 50 236 2.6 7.0 0.00 0.16 0.00 80 1007.2
20260904102232 50 207 2.6 7.0 0.00 0.16 0.00 80 1007.4
20260904101235 49 223 0.9 4.3 0.00 0.16 0.00 81 1007.9
20260904100730 49 167 0.9 3.5 0.00 0.16 0.00 82 1007.5
20260904100232 49 202 0.0 2.6 0.00 0.16 0.00 82 1007.2
20260904095234 49 244 0.0 0.0 0.00 0.16 0.00 82 1006.7
20260904094730 49 245 0.0 0.0 0.00 0.16 0.00 82 1006.3
20260904094232 49 245 0.0 0.0 0.00 0.16 0.00 83 1006.2
20260904093733 49 244 0.0 0.0 0.00 0.16 0.00 83 1006.2
20260904093233 48 244 0.0 0.9 0.00 0.16 0.00 83 1006.5
20260904092731 48 244 0.0 0.9 0.00 0.16 0.00 82 1006.5
20260904091733 48 245 1.7 2.6 0.00 0.16 0.00 82 1006.3
20260904091232 49 245 1.7 3.5 0.00 0.16 0.00 82 1006.2
20260904090235 49 244 1.7 3.5 0.00 0.16 0.00 81 1006.3
20260904085731 50 244 0.9 4.3 0.00 0.16 0.00 81 1006.5
20260904085232 50 236 0.9 4.3 0.00 0.16 0.00 81 1006.3
20260904084730 50 211 0.9 4.3 0.00 0.16 0.00 81 1006.6
20260904084233 49 213 0.9 2.6 0.00 0.16 0.00 82 1006.7
20260904083730 49 221 0.9 2.6 0.00 0.16 0.00 81 1006.7
20260904083232 50 225 0.9 2.6 0.00 0.16 0.00 81 1006.8
20260904082731 50 225 0.0 2.6 0.00 0.16 0.00 81 1006.7
20260904082235 50 224 0.9 2.6 0.00 0.16 0.00 81 1006.7
20260904081730 50 224 0.9 2.6 0.00 0.16 0.00 81 1006.7
20260904081232 49 223 0.0 1.7 0.00 0.16 0.00 81 1006.8
20260904080730 49 223 0.9 3.5 0.00 0.16 0.00 81 1006.9
20260904080232 49 223 1.7 3.5 0.00 0.16 0.00 82 1006.9
20260904075731 49 217 1.7 3.5 0.00 0.16 0.00 82 1007.0
20260904075238 49 211 0.9 3.5 0.00 0.16 0.00 82 1006.9
20260904074733 49 207 0.0 3.5 0.00 0.16 0.00 80 1007.1
20260904074234 49 327 0.0 0.0 0.00 0.16 0.00 80 1007.0
20260904072232 50 328 0.0 0.0 0.00 0.16 0.00 81 1006.9
20260904071730 50 328 0.0 0.0 0.00 0.16 0.00 80 1007.0
20260904071231 50 328 0.0 0.0 0.00 0.16 0.00 80 1007.0
20260904070730 50 328 0.0 0.0 0.00 0.16 0.00 81 1006.9
20260904070232 51 328 0.0 0.0 0.00 0.16 0.00 81 1007.0
20260904065232 51 329 0.0 0.0 0.00 0.16 0.00 80 1006.9
20260904064730 51 329 0.0 1.7 0.00 0.16 0.00 81 1007.0
20260904063236 51 328 0.9 3.5 0.00 0.16 0.00 80 1007.1
20260904062731 51 327 1.7 3.5 0.00 0.16 0.00 80 1007.2
20260904062232 52 335 1.7 3.5 0.00 0.16 0.00 81 1007.0
20260904061730 51 332 0.9 3.5 0.00 0.16 0.00 81 1007.1
20260904061233 51 39 0.9 2.6 0.00 0.16 0.00 82 1007.2
20260904060729 51 332 1.7 3.5 0.00 0.16 0.00 81 1007.5
20260904060234 51 332 1.7 3.5 0.00 0.16 0.00 82 1007.5
20260904055731 51 331 1.7 3.5 0.00 0.16 0.16 82 1007.5
20260904054730 51 327 0.9 2.6 0.00 0.16 0.16 81 1007.8
20260904054233 51 327 1.7 2.6 0.00 0.16 0.16 81 1007.8
20260904053232 52 341 0.0 2.6 0.00 0.16 0.16 80 1007.9
20260904052731 52 338 0.9 2.6 0.00 0.16 0.16 80 1008.1
20260904051730 52 0 0.0 2.6 0.00 0.16 0.16 79 1008.2
20260904051233 52 338 0.9 1.7 0.00 0.16 0.16 79 1008.3
20260904050732 53 338 0.9 2.6 0.00 0.16 0.16 79 1008.2
20260904050232 53 338 0.9 3.5 0.00 0.16 0.16 79 1008.3
20260904045734 53 0 0.9 3.5 0.00 0.16 0.16 79 1008.3
20260904045234 53 336 0.0 0.0 0.00 0.16 0.16 77 1008.4
20260904044232 54 336 0.0 0.0 0.00 0.16 0.16 75 1008.6
20260903225235 63 0 0.9 3.5 0.00 0.20 0.16 65 1010.1
20260903224733 63 0 0.9 3.5 0.00 0.20 0.16 67 1010.1
20260903224233 63 0 0.9 3.5 0.00 0.20 0.16 67 1010.0
20260903223730 63 0 0.9 2.6 0.00 0.21 0.16 66 1010.0
20260903223233 63 0 0.9 2.6 0.00 0.22 0.16 67 1010.0
20260903222730 63 0 0.0 1.7 0.00 0.23 0.16 69 1010.0
20260903221730 63 0 0.0 0.0 0.00 0.28 0.16 67 1010.1
20260903221240 63 0 0.0 0.0 0.00 0.30 0.16 69 1010.1
20260903220731 62 244 0.0 0.0 0.00 0.33 0.16 70 1010.2
20260903215230 62 242 0.0 0.0 0.00 0.41 0.16 73 1010.2
20260903214731 61 242 0.0 0.0 0.00 0.44 0.16 73 1010.2
20260903214230 61 242 0.0 0.0 0.00 0.46 0.16 74 1010.1
20260903213232 61 245 0.0 1.7 0.00 0.55 0.16 73 1010.1
20260903212731 61 0 0.0 1.7 0.00 0.60 0.16 72 1010.1
20260903212231 62 0 0.0 0.0 0.00 0.63 0.16 70 1010.1
20260903211734 62 0 0.0 0.0 0.00 0.66 0.16 70 1010.0
20260903211233 62 0 0.0 0.9 0.00 0.70 0.16 71 1010.1
20260903210236 62 0 1.7 4.3 0.00 0.75 0.16 70 1010.2
20260903203735 60 172 0.9 2.6 0.00 0.87 0.16 76 1010.2
20260903203228 60 186 0.9 0.0 0.00 0.87 0.16 76 1010.2
20260903202934 60 217 1.7 4.3 0.00 0.87 0.16 76 1010.2
20260903202437 60 0 1.7 4.3 0.00 0.87 0.16 78 1010.2
20260903201935 59 0 1.7 4.3 0.00 0.87 0.16 78 1010.3
20260903201435 59 0 1.7 4.3 0.00 0.87 0.16 80 1010.3
20260903200936 59 0 1.7 5.2 0.00 0.87 0.16 80 1010.4
20260903200436 59 0 1.7 5.2 0.00 0.87 0.16 81 1010.5
20260903195432 58 0 1.7 4.3 0.00 0.87 0.16 78 1010.6
20260903194933 58 0 0.9 4.3 0.00 0.87 0.16 80 1010.7
20260903194432 58 0 0.9 2.6 0.00 0.87 0.16 81 1010.5
20260903193931 58 0 1.7 3.5 0.00 0.87 0.16 81 1010.5
20260903193434 58 0 3.5 7.0 0.04 0.87 0.16 80 1010.6
20260903192934 58 0 3.5 7.0 0.07 0.87 0.16 79 1010.6
20260903191934 57 0 2.6 7.0 0.10 0.87 0.16 80 1010.7
20260903190431 56 0 2.6 6.1 0.11 0.87 0.16 82 1010.8
20260903185932 55 0 3.5 6.1 0.12 0.87 0.16 82 1010.8
20260903185432 55 121 2.6 5.2 0.12 0.87 0.16 81 1010.9
20260903184931 54 0 1.7 5.2 0.12 0.87 0.16 84 1010.9
20260903184432 54 0 1.7 5.2 0.12 0.87 0.16 83 1011.2
20260903183930 54 0 1.7 4.3 0.12 0.87 0.15 83 1010.8
20260903183434 55 0 1.7 4.3 0.08 0.83 0.12 83 1010.9
20260903182931 55 0 1.7 4.3 0.05 0.80 0.06 83 1010.8
20260903182431 55 0 1.7 4.3 0.02 0.77 0.06 82 1010.6
20260903180931 56 0 0.9 3.5 0.02 0.77 0.06 82 1010.7
20260903180433 56 0 0.9 3.5 0.01 0.76 0.05 82 1010.8
20260903175435 56 0 0.9 2.6 0.00 0.75 0.04 81 1010.8
20260903174931 56 0 0.9 3.5 0.00 0.75 0.04 81 1010.7
20260903173930 56 0 1.7 7.0 0.00 0.75 0.04 82 1010.8
20260903173432 56 0 1.7 7.0 0.00 0.75 0.04 82 1010.9
20260903172931 56 0 1.7 5.2 0.00 0.75 0.04 82 1010.9
20260903172434 56 0 1.7 5.2 0.00 0.75 0.04 82 1010.8
20260903171930 56 0 0.9 4.3 0.00 0.75 0.04 82 1010.8
20260903171431 55 0 0.9 3.5 0.00 0.75 0.04 83 1010.6
20260903170430 55 0 0.9 4.3 0.00 0.75 0.04 83 1010.7
20260903165931 55 0 0.9 3.5 0.00 0.75 0.04 83 1010.6
20260903165432 55 0 1.7 3.5 0.00 0.75 0.04 83 1010.6
20260903164932 55 0 1.7 3.5 0.00 0.75 0.04 83 1010.6
20260903163931 55 206 0.9 3.5 0.00 0.75 0.04 83 1010.4
20260903163434 54 209 0.9 2.6 0.00 0.75 0.04 83 1010.3
20260903162933 54 211 0.0 2.6 0.00 0.75 0.04 83 1010.5
20260903162435 54 217 0.9 3.5 0.01 0.75 0.04 84 1010.6
20260903161934 54 218 0.9 3.5 0.01 0.75 0.04 83 1010.4
20260903160934 54 240 1.7 4.3 0.01 0.75 0.04 83 1010.2
20260903155932 55 237 1.7 5.2 0.01 0.75 0.04 83 1010.3
20260903155434 54 210 1.7 4.3 0.01 0.75 0.04 83 1010.3
20260903154930 54 216 1.7 6.1 0.01 0.75 0.04 84 1010.2
20260903154431 54 225 1.7 6.1 0.01 0.75 0.04 84 1010.2
20260903153434 54 211 1.7 6.1 0.01 0.75 0.04 84 1010.0
20260903152931 54 237 1.7 4.3 0.01 0.75 0.04 84 1010.0
20260903152430 54 232 2.6 4.3 0.00 0.74 0.03 84 1010.0
20260903151931 54 207 1.7 4.3 0.00 0.74 0.03 84 1010.0
20260903151430 53 206 1.7 4.3 0.00 0.74 0.03 85 1009.8
20260903150933 53 208 1.7 4.3 0.00 0.74 0.03 85 1009.8
20260903150432 53 211 1.7 4.3 0.00 0.74 0.03 85 1009.7
20260903145930 53 214 1.7 4.3 0.00 0.74 0.03 85 1009.7
20260903144933 52 196 1.7 4.3 0.00 0.74 0.03 85 1009.6